Location: Goettingen
(51.5300°N, 9.9433°E)
Time: 20:03:32
(UTC+02:00)

ISS - Pass Details

Date: 21 July 2019
Orbit: 409 x 418 km, 51.6° (Epoch: 20 July)

Event Time Altitude Azimuth Distance (km) Brightness Sun altitude
Rises 22:10:55 0° 241° (WSW) 2,349 0.3 -6.3°
Reaches altitude 10° 22:13:02 10° 237° (WSW) 1,487 -0.8 -6.6°
Maximum altitude 22:16:18 54° 159° (SSE) 513 -3.6 -6.9°
Drops below altitude 10° 22:19:34 10° 81° (E) 1,487 -1.3 -7.3°
Sets 22:21:41 0° 77° (ENE) 2,350 -0.3 -7.5°
